Terminal Aerodrome Forecast
Issued by NWS Portland, OR

Home | Current Version | Previous Version | Text Only | Print | Product List | Glossary On
Versions: 1 2 3 4 5 6 7 8 9 10 11 12 13
000
FTUS46 KPQR 271746
TAFEUG
TAF
KEUG 271746Z 2718/2818 VRB04KT P6SM SCT012
     FM271900 36006KT P6SM SCT020
     FM272100 36008KT P6SM SKC
     FM280500 36003KT P6SM SKC=

USA.gov is the U.S. government's official web portal to all federal, state and local government web resources and services.